Simultaneous Nadir Overpasses (SNOs) Predictions

Prediction of SNOs between GOES-17 and NOAA-19 Satellite Orbit:

Table of predicted SNOs for the next 14.0 days since TLE Epoch: 9/16/2023
Index Date Time (GOES-17) GOES-17 Lat,Lon NOAA-19 Lat,Lon Distance(km) Time Diff (sec)
1 09/16/2023 15:32:36 0.01,-104.71 -0.80,-101.27 393.14 80
2 09/18/2023 04:04:42 -0.01,-104.68 -1.00,-108.97 488.81 80
3 09/19/2023 03:52:37 -0.01,-104.68 -0.34,-106.02 153.09 80
4 09/20/2023 03:37:51 -0.01,-104.68 0.33,-103.07 182.58 80
5 09/22/2023 15:57:48 0.01,-104.69 0.76,-107.82 356.93 80
6 09/23/2023 15:45:43 0.01,-104.69 0.04,-104.88 21.63 80
7 09/24/2023 15:36:18 0.01,-104.68 -0.62,-101.94 313.75 80
8 09/27/2023 03:56:17 -0.01,-104.65 -0.49,-106.68 231.84 80
9 09/28/2023 03:41:31 -0.01,-104.65 0.20,-103.74 103.85 80
10 09/29/2023 03:29:26 -0.02,-104.64 0.88,-100.80 439.62 80
